| time (UTC) | temp C | wind direction | speed KPH | gust KPH | rain 1hr cm | rain 24hr cm | rain mn cm | humidity % | barometer mb |
| 20260504201021 | 22 | 285 | 3.2 | 14.5 | 0.00 | 0.00 | 0.00 | 51 | 1014.7 |
| 20260504200022 | 21 | 128 | 3.2 | 11.3 | 0.00 | 0.00 | 0.00 | 49 | 1014.7 |
| 20260504195021 | 20 | 116 | 4.8 | 12.9 | 0.00 | 0.00 | 0.00 | 49 | 1014.9 |
| 20260504194022 | 20 | 160 | 4.8 | 16.1 | 0.00 | 0.00 | 0.00 | 49 | 1014.9 |
| 20260504193023 | 21 | 307 | 4.8 | 11.3 | 0.00 | 0.00 | 0.00 | 47 | 1015.1 |
| 20260504192022 | 21 | 270 | 4.8 | 11.3 | 0.00 | 0.00 | 0.00 | 46 | 1015.0 |
| 20260504191021 | 21 | 244 | 1.6 | 16.1 | 0.00 | 0.00 | 0.00 | 46 | 1015.2 |
| 20260504190021 | 22 | 341 | 4.8 | 14.5 | 0.00 | 0.00 | 0.00 | 47 | 1015.3 |
| 20260504185024 | 21 | 79 | 6.4 | 17.7 | 0.00 | 0.00 | 0.00 | 47 | 1015.5 |
| 20260504184021 | 22 | 43 | 1.6 | 16.1 | 0.00 | 0.00 | 0.00 | 45 | 1015.6 |
| 20260504183022 | 22 | 202 | 3.2 | 12.9 | 0.00 | 0.00 | 0.00 | 45 | 1015.6 |
| 20260504182022 | 22 | 270 | 1.6 | 11.3 | 0.00 | 0.00 | 0.00 | 46 | 1015.8 |
| 20260504181021 | 21 | 109 | 4.8 | 12.9 | 0.00 | 0.00 | 0.00 | 49 | 1015.9 |
| 20260504180022 | 20 | 253 | 3.2 | 11.3 | 0.00 | 0.00 | 0.00 | 51 | 1016.1 |
| 20260504175021 | 20 | 265 | 3.2 | 11.3 | 0.00 | 0.00 | 0.00 | 53 | 1016.3 |
| 20260504174022 | 20 | 255 | 1.6 | 12.9 | 0.00 | 0.00 | 0.00 | 56 | 1016.3 |
| 20260504173022 | 19 | 324 | 3.2 | 11.3 | 0.00 | 0.00 | 0.00 | 51 | 1016.3 |
| 20260504172021 | 19 | 81 | 3.2 | 9.7 | 0.00 | 0.00 | 0.00 | 49 | 1016.4 |
| 20260504171022 | 20 | 101 | 3.2 | 11.3 | 0.00 | 0.00 | 0.00 | 49 | 1016.5 |
| 20260504151026 | 18 | 305 | 6.4 | 19.3 | 0.00 | 0.00 | 0.00 | 43 | 1017.6 |
| 20260504141022 | 16 | 84 | 9.7 | 16.1 | 0.00 | 0.00 | 0.00 | 47 | 1017.3 |
| 20260504081022 | 13 | 280 | 3.2 | 11.3 | 0.00 | 0.00 | 0.00 | 41 | 1018.0 |
| 20260504050023 | 13 | 73 | 3.2 | 11.3 | 0.00 | 0.00 | 0.00 | 40 | 1018.3 |
| 20260504045022 | 12 | 82 | 3.2 | 17.7 | 0.00 | 0.00 | 0.00 | 40 | 1018.2 |
| 20260504044022 | 12 | 58 | 3.2 | 8.0 | 0.00 | 0.00 | 0.00 | 41 | 1018.2 |
| 20260504043021 | 12 | 91 | 3.2 | 8.0 | 0.00 | 0.00 | 0.00 | 41 | 1018.2 |
| 20260504042026 | 12 | 102 | 3.2 | 9.7 | 0.00 | 0.00 | 0.00 | 41 | 1018.1 |
| 20260504041021 | 12 | 89 | 4.8 | 11.3 | 0.00 | 0.00 | 0.00 | 42 | 1018.1 |
| 20260504040022 | 12 | 105 | 6.4 | 11.3 | 0.00 | 0.00 | 0.00 | 43 | 1018.1 |
| 20260504035021 | 13 | 106 | 3.2 | 8.0 | 0.00 | 0.00 | 0.00 | 38 | 1018.0 |
| 20260504034021 | 13 | 272 | 1.6 | 11.3 | 0.00 | 0.00 | 0.00 | 38 | 1018.0 |
| 20260504033022 | 13 | 288 | 1.6 | 11.3 | 0.00 | 0.00 | 0.00 | 37 | 1018.0 |
| 20260504032021 | 13 | 218 | 4.8 | 11.3 | 0.00 | 0.00 | 0.00 | 37 | 1018.0 |
| 20260504031022 | 13 | 290 | 4.8 | 9.7 | 0.00 | 0.00 | 0.00 | 37 | 1018.0 |
| 20260504030021 | 13 | 270 | 3.2 | 8.0 | 0.00 | 0.00 | 0.00 | 37 | 1018.0 |
| 20260504025022 | 13 | 168 | 3.2 | 6.4 | 0.00 | 0.00 | 0.00 | 38 | 1018.0 |
| 20260504024021 | 13 | 317 | 1.6 | 8.0 | 0.00 | 0.00 | 0.00 | 37 | 1018.1 |
| 20260504023022 | 13 | 99 | 1.6 | 9.7 | 0.00 | 0.00 | 0.00 | 38 | 1018.0 |
| 20260504022022 | 13 | 70 | 4.8 | 11.3 | 0.00 | 0.00 | 0.00 | 37 | 1017.9 |
| 20260504021021 | 12 | 147 | 1.6 | 6.4 | 0.00 | 0.00 | 0.00 | 39 | 1018.0 |
| 20260504020022 | 12 | 53 | 1.6 | 11.3 | 0.00 | 0.00 | 0.00 | 40 | 1017.7 |
| 20260504015021 | 12 | 99 | 3.2 | 8.0 | 0.00 | 0.00 | 0.00 | 41 | 1017.8 |
| 20260504014022 | 12 | 86 | 4.8 | 11.3 | 0.00 | 0.00 | 0.00 | 41 | 1017.6 |
| 20260504013022 | 12 | 73 | 4.8 | 11.3 | 0.00 | 0.00 | 0.00 | 42 | 1017.5 |
| 20260504012021 | 12 | 78 | 6.4 | 11.3 | 0.00 | 0.00 | 0.00 | 42 | 1017.4 |
| 20260504011022 | 12 | 70 | 4.8 | 6.4 | 0.00 | 0.00 | 0.00 | 41 | 1017.4 |
| 20260504010021 | 12 | 55 | 4.8 | 8.0 | 0.00 | 0.00 | 0.00 | 41 | 1017.4 |
| 20260504005022 | 12 | 95 | 4.8 | 6.4 | 0.00 | 0.00 | 0.00 | 42 | 1017.3 |
| 20260504004021 | 12 | 71 | 4.8 | 9.7 | 0.00 | 0.00 | 0.00 | 42 | 1017.3 |
| 20260504003021 | 12 | 81 | 4.8 | 6.4 | 0.00 | 0.00 | 0.00 | 42 | 1017.3 |
| 20260504002022 | 13 | 52 | 3.2 | 9.7 | 0.00 | 0.00 | 0.00 | 41 | 1017.3 |
| 20260504001021 | 13 | 67 | 8.0 | 11.3 | 0.00 | 0.00 | 0.00 | 41 | 1017.3 |
| 20260504000021 | 13 | 84 | 8.0 | 11.3 | 0.00 | 0.00 | 0.00 | 41 | 1017.2 |
| 20260503235022 | 13 | 76 | 4.8 | 11.3 | 0.00 | 0.00 | 0.00 | 42 | 1017.2 |
| 20260503234021 | 13 | 79 | 4.8 | 9.7 | 0.00 | 0.00 | 0.00 | 42 | 1017.1 |
| 20260503233022 | 13 | 88 | 6.4 | 11.3 | 0.00 | 0.00 | 0.00 | 41 | 1017.1 |
| 20260503232021 | 13 | 96 | 3.2 | 8.0 | 0.00 | 0.00 | 0.00 | 42 | 1017.0 |
| 20260503231022 | 14 | 71 | 4.8 | 11.3 | 0.00 | 0.00 | 0.00 | 40 | 1017.0 |
| 20260503230023 | 15 | 113 | 1.6 | 4.8 | 0.00 | 0.00 | 0.00 | 36 | 1017.0 |
| 20260503225022 | 15 | 102 | 3.2 | 4.8 | 0.00 | 0.00 | 0.00 | 37 | 1017.0 |
| 20260503224021 | 17 | 88 | 3.2 | 6.4 | 0.00 | 0.00 | 0.00 | 34 | 1017.0 |
| 20260503223022 | 17 | 148 | 3.2 | 8.0 | 0.00 | 0.00 | 0.00 | 36 | 1017.0 |
| 20260503222021 | 17 | 244 | 3.2 | 11.3 | 0.00 | 0.00 | 0.00 | 39 | 1017.0 |
| 20260503221022 | 17 | 108 | 1.6 | 9.7 | 0.00 | 0.00 | 0.00 | 36 | 1017.1 |
| 20260503220022 | 18 | 180 | 0.0 | 6.4 | 0.00 | 0.00 | 0.00 | 37 | 1017.1 |
| 20260503215021 | 17 | 278 | 3.2 | 8.0 | 0.00 | 0.00 | 0.00 | 37 | 1017.1 |
| 20260503214022 | 17 | 334 | 4.8 | 9.7 | 0.00 | 0.00 | 0.00 | 31 | 1017.1 |
| 20260503213023 | 16 | 153 | 6.4 | 16.1 | 0.00 | 0.00 | 0.00 | 36 | 1017.1 |
| 20260503212022 | 17 | 255 | 4.8 | 6.4 | 0.00 | 0.00 | 0.00 | 34 | 1017.2 |
| 20260503211021 | 16 | 254 | 8.0 | 11.3 | 0.00 | 0.00 | 0.00 | 34 | 1017.1 |
| 20260503210024 | 16 | 289 | 4.8 | 8.0 | 0.00 | 0.00 | 0.00 | 35 | 1017.2 |
| 20260503205023 | 16 | 241 | 1.6 | 9.7 | 0.00 | 0.00 | 0.00 | 37 | 1017.3 |
| 20260503204023 | 15 | 179 | 1.6 | 16.1 | 0.00 | 0.00 | 0.00 | 34 | 1017.3 |
| 20260503203022 | 16 | 96 | 3.2 | 11.3 | 0.00 | 0.00 | 0.00 | 37 | 1017.5 |
| 20260503202023 | 15 | 297 | 3.2 | 14.5 | 0.00 | 0.00 | 0.00 | 37 | 1017.6 |